Location: Vancouver
(49.2500°N, 123.1330°W)
Time: 05:32:35
(UTC-08:00)

Transit 2A Rocket - Visible Passes

Search period start: 06 February 2016 00:00
Search period end: 16 February 2016 00:00
Orbit: 592 x 913 km, 66.7° (Epoch: 06 February)

Date Brightness Start Highest point End Pass type
(mag) Time Alt. Az. Time Alt. Az. Time Alt. Az.
06 Feb 7.3 04:40:12 12° N 04:42:03 14° NNE 04:44:43 10° NE visible
06 Feb 6.1 06:21:11 10° NNW 06:25:55 41° NE 06:31:05 10° ESE visible
07 Feb 7.5 03:59:02 12° NNE 03:59:14 12° NNE 04:00:59 10° NE visible
07 Feb 6.6 05:39:06 10° NNW 05:43:27 29° NE 05:48:08 10° E visible
08 Feb 7.0 04:57:49 13° N 05:00:53 21° NNE 05:04:56 10° E visible
08 Feb 5.2 06:39:04 10° NW 06:44:11 81° NE 06:49:47 10° SE visible
09 Feb 7.2 04:16:42 15° N 04:18:13 17° NNE 04:21:32 10° ENE visible
09 Feb 5.7 05:56:53 10° NNW 06:01:51 54° NE 06:07:17 10° SE visible
10 Feb 7.6 03:35:37 13° NNE 03:35:37 13° NNE 03:37:56 10° NE visible
10 Feb 6.3 05:15:32 14° NNW 05:19:27 37° NE 05:24:31 10° ESE visible
10 Feb 5.4 06:57:13 10° NW 07:02:12 48° WSW 07:07:36 10° S visible
11 Feb 6.8 04:34:30 19° N 04:36:56 27° NE 04:41:29 10° E visible
11 Feb 5.0 06:14:52 10° NW 06:20:01 76° WSW 06:25:39 10° SSE visible
12 Feb 7.1 03:53:31 19° NNE 03:54:19 20° NNE 03:58:14 10° ENE visible
12 Feb 5.2 05:33:27 15° NNW 05:37:45 72° NE 05:43:22 10° SE visible
13 Feb 7.6 03:12:36 15° NE 03:12:36 15° NE 03:14:46 10° ENE visible
13 Feb 5.9 04:52:32 24° NNW 04:55:24 48° NE 05:00:46 10° ESE visible
13 Feb 5.7 06:33:11 10° NW 06:37:56 36° WSW 06:43:03 10° S visible
14 Feb 6.4 04:11:41 30° NNE 04:12:56 33° NE 04:17:55 10° ESE visible
14 Feb 5.2 05:51:38 15° NW 05:55:49 56° WSW 06:01:21 10° SSE visible
15 Feb 7.0 03:30:57 24° NE 03:30:57 24° NE 03:34:50 10° E visible
15 Feb 4.9 05:10:55 30° NW 05:13:35 86° WSW 05:19:17 10° SSE visible
